Weather History for Skagway, AK

Change the Weather History Date:

Sunday, March 18, 2012

  Actual Average Record
Temperature  
Mean Temperature 32 °F -  
Max Temperature 39 °F 36 °F 49 °F (1983)
Min Temperature 28 °F 25 °F 6 °F (2006)
Degree Days  
Heating Degree Days 32    
Moisture  
Dew Point 27 °F    
Average Humidity 80    
Maximum Humidity 93    
Minimum Humidity 64    
Precipitation  
Precipitation 0.01 in - - ()
Sea Level Pressure  
Sea Level Pressure 29.61 in    
Wind  
Wind Speed 4 mph (East)    
Max Wind Speed 20 mph    
Max Gust Speed -    
Visibility 8 miles    
Events Snow    
Averages and records for this station are not official NWS values.
T = Trace of Precipitation, MM = Missing Value Source: NWS Daily Summary

Daily Weather History Graph

Daily Weather History Graph

Search for Another Location

Airport:

Trip Planner

Search our weather history database for the weather conditions in past years. The results will help you decide how hot, cold, wet, or windy it might be!

Date:

Astronomy

Mar. 18, 2012 Rise Set
Actual Time 7:06 AM AKDT 7:12 PM AKDT
Civil Twilight 6:26 AM AKDT 7:53 PM AKDT
Nautical Twilight 5:37 AM AKDT 8:42 PM AKDT
Astronomical Twilight 4:44 AM AKDT 9:35 PM AKDT
Moon 5:38 AM AKDT (3/18) 3:03 PM AKDT (3/18)
Length of Visible Light 13h 27m
Length of Day
12h 05m
Waning Crescent, 14% of the Moon is Illuminated
Mar 18
Waning Crescent
Mar 22
New
Mar 30
First Quarter
Apr 6
Full
Apr 13
Last Quarter

Hourly Weather History & Observations

Time (AKDT) Temp. Windchill Dew Point Humidity Pressure Visibility Wind Dir Wind Speed Gust Speed Precip Events Conditions
12:53 AM 30.9 °F - 23.0 °F 72% 29.53 in 10.0 mi Calm Calm - N/A   Partly Cloudy
1:53 AM 28.9 °F - 23.0 °F 78% 29.53 in 10.0 mi Calm Calm - N/A   Clear
2:53 AM 28.9 °F - 24.1 °F 82% 29.54 in 10.0 mi Calm Calm - N/A   Mostly Cloudy
3:53 AM 33.1 °F - 25.0 °F 72% 29.55 in 10.0 mi Calm Calm - N/A   Mostly Cloudy
4:53 AM 30.9 °F 27.5 °F 24.1 °F 76% 29.58 in 10.0 mi Variable 3.5 mph - N/A   Overcast
5:16 AM 32.0 °F - 24.8 °F 75% 29.59 in 2.5 mi Calm Calm - 0.00 in Snow Light Snow
5:27 AM 30.2 °F 25.4 °F 26.6 °F 86% 29.59 in 1.8 mi ENE 4.6 mph - 0.00 in Snow Light Snow
5:38 AM 30.2 °F 25.4 °F 26.6 °F 86% 29.58 in 2.0 mi NNE 4.6 mph - 0.00 in Snow Light Snow
5:53 AM 30.0 °F 24.1 °F 27.0 °F 88% 29.60 in 2.0 mi NE 5.8 mph - 0.00 in Snow Light Snow
6:01 AM 30.2 °F 23.4 °F 26.6 °F 86% 29.59 in 1.2 mi NE 6.9 mph - 0.00 in Snow Light Snow
6:26 AM 30.2 °F 26.7 °F 28.4 °F 93% 29.60 in 1.8 mi NE 3.5 mph - 0.01 in Snow Light Snow
6:33 AM 30.2 °F 25.4 °F 28.4 °F 93% 29.60 in 3.0 mi NE 4.6 mph - 0.01 in Snow Light Snow
6:40 AM 30.2 °F 23.4 °F 28.4 °F 93% 29.60 in 4.0 mi ENE 6.9 mph - 0.01 in Snow Light Snow
6:53 AM 30.0 °F 26.5 °F 28.0 °F 92% 29.61 in 2.5 mi NE 3.5 mph - 0.01 in Snow Light Snow
7:09 AM 30.2 °F - 26.6 °F 86% 29.61 in 5.0 mi Calm Calm - 0.00 in Snow Light Snow
7:53 AM 30.0 °F - 28.0 °F 92% 29.61 in 10.0 mi Calm Calm - 0.00 in   Overcast
8:53 AM 30.0 °F - 27.0 °F 88% 29.62 in 9.0 mi Calm Calm - N/A   Mostly Cloudy
9:53 AM 28.0 °F 22.8 °F 26.1 °F 92% 29.62 in 9.0 mi NE 4.6 mph - N/A   Clear
10:53 AM 34.0 °F - 28.0 °F 79% 29.62 in 10.0 mi Calm Calm - N/A   Clear
11:53 AM 34.0 °F 28.8 °F 28.0 °F 79% 29.61 in 10.0 mi SSW 5.8 mph - N/A   Clear
12:53 PM 35.1 °F 27.9 °F 28.9 °F 78% 29.62 in 10.0 mi SSW 9.2 mph - N/A   Clear
1:53 PM 37.0 °F 28.9 °F 30.0 °F 76% 29.61 in 10.0 mi SSW 12.7 mph - N/A   Mostly Cloudy
2:53 PM 37.9 °F 27.9 °F 30.9 °F 76% 29.62 in 10.0 mi SSW 19.6 mph - N/A   Overcast
3:53 PM 37.9 °F 27.9 °F 30.0 °F 73% 29.62 in 10.0 mi SSW 19.6 mph - N/A   Mostly Cloudy
4:53 PM 37.9 °F 28.9 °F 28.0 °F 68% 29.64 in 10.0 mi SSW 16.1 mph - N/A   Overcast
5:53 PM 37.0 °F 26.7 °F 28.9 °F 73% 29.65 in 10.0 mi SSW 19.6 mph - N/A   Overcast
6:53 PM 36.0 °F 27.1 °F 27.0 °F 70% 29.66 in 10.0 mi SSW 13.8 mph - N/A   Overcast
7:53 PM 36.0 °F 28.0 °F 25.0 °F 64% 29.68 in 10.0 mi South 11.5 mph - N/A   Overcast
8:53 PM 35.1 °F - 25.0 °F 67% 29.68 in 10.0 mi Calm Calm - N/A   Overcast
9:53 PM 33.1 °F 30.0 °F 26.1 °F 75% 29.69 in 10.0 mi NNE 3.5 mph - N/A   Overcast
10:53 PM 32.0 °F 28.7 °F 25.0 °F 75% 29.70 in 10.0 mi NE 3.5 mph - N/A   Overcast
11:53 PM 32.0 °F - 24.1 °F 73% 29.70 in 10.0 mi Calm Calm - N/A   Overcast